Location: Blanot
(47.1713°N, 4.2340°E)
Time: 04:27:02
(UTC+00:00)

Cosmos 540 Rocket - Pass Details

Date: 14 July 2020
Orbit: 740 x 753 km, 74.1° (Epoch: 06 August)

Event Time Altitude Azimuth Distance (km) Brightness Sun altitude
Rises 02:49:56 0° 340° (NNW) 3,199 7.1 -10.1°
Reaches altitude 10° 02:52:21 10° 344° (NNW) 2,273 6.4 -9.8°
Maximum altitude 02:57:26 59° 64° (ENE) 865 4.2 -9.2°
Drops below altitude 10° 03:02:30 10° 144° (SE) 2,266 5.9 -8.6°
Sets 03:04:53 0° 148° (SSE) 3,188 6.6 -8.3°
